TIME,DELAY(SENSOR),PRES,OXYGEN,RAWTEMP,T(OPTODE),TCPHASE,FLUOR,BETA(BETA700),BETA(BETA412),BETA(BETA440),CDOM,C(CSC),ED(ED411.90),ED(ED443.80),ED(ED489.40),ED(ED554.70),LU(LU412.20),LU(LU443.80),LU(LU489.40),LU(LU555.00),COMP,TILTX,TILTY,CHECK
1378764342,5806,938.5000000000000000,115.8574981689453100,394.4118957519531000,10.7729701995849610,42.7675094604492200,107,4130,48,51,54,9657,2146964077,2147515547,2147289115,2147489389,2147081481,2146934162,2147697380,2147123337,1405,-1,8,13243
1378767938,5806,1092.8599853515625000,132.6293029785156200,487.1069030761719000,7.9289441108703610,42.6657218933105500,111,4130,47,50,53,9653,2146964297,2147518500,2147301924,2147509202,2147082825,2146921380,2147720822,2147120969,2117,-1,8,62052
1378771538,5808,1134.8299560546875000,160.6304016113281200,514.2515869140625000,7.0866627693176270,40.8378410339355500,112,4130,47,50,53,9639,2146963757,2147521152,2147299456,2147514596,2147085147,2146922185,2147722934,2147119917,849,-1,8,60700
1378775138,5809,1127.9300537109375000,122.5792999267578100,517.2584228515625000,6.9930529594421390,44.0689086914062500,111,4130,48,50,53,9641,2146965531,2147522194,2147301540,2147513938,2147083547,2146922057,2147725101,2147119798,85,0,8,39628
1378778738,5806,1120.8100585937500000,125.7124023437500000,518.0858764648438000,6.9672789573669430,43.7969512939453100,112,4130,48,51,54,9642,2146963209,2147517156,2147301046,2147511177,2147082294,2146927067,2147725952,2147119442,158,-1,8,40392
1378782338,5805,1124.3199462890625000,125.3104019165039000,519.1090698242188000,6.9354071617126465,43.8489608764648440,111,4130,48,50,54,9633,2146965842,2147518985,2147301266,2147513984,2147085577,2146919661,2147718921,2147119012,3285,-1,8,52588
1378785938,5803,1127.4499511718750000,150.0816955566406200,519.5609741210938000,6.9213271141052250,41.7493782043457000,114,4130,48,50,54,9638,2146966034,2147522294,2147301824,2147518125,2147079771,2146923300,2147724992,2147122322,2811,-1,8,59236
1378789538,5804,1113.8399658203125000,163.4028015136718800,513.5355224609375000,7.1089482307434080,40.6181907653808600,112,4130,47,50,52,9629,2146963172,2147524251,2147302820,2147513170,2147083136,2146922697,2147720484,2147118884,1961,-1,8,21941
1378793138,5806,1118.4399414062500000,160.0868072509765600,512.1093750000000000,7.1533141136169430,40.8415107727050800,113,4130,47,50,53,9623,2146961709,2147519195,2147300708,2147511643,2147082395,2146920292,2147723209,2147119917,190,-1,8,30138
1378796738,5804,1124.1999511718750000,125.5337982177734400,511.0245971679687500,7.1870551109313965,43.6951408386230500,114,4130,47,50,53,9622,2146964580,2147516964,2147301705,2147508626,2147085449,2146921682,2147723300,2147123053,2951,-1,8,15356
1378800338,5808,1109.4799804687500000,154.0832061767578000,501.8720092773437500,7.4714050292968750,41.1282997131347660,113,4130,47,50,53,9618,2146964178,2147520457,2147300644,2147508187,2147082477,2146918336,2147720594,2147120009,281,-1,8,14782
1378803938,5805,1106.4599609375000000,125.0466003417968800,501.6416931152344000,7.4785518646240230,43.5872383117675800,115,4130,47,50,54,9621,2146966637,2147520201,2147299684,2147509394,2147083904,2146918838,2147714596,2147120054,3267,-1,8,1578
1378807538,5811,1112.0999755859375000,134.1905975341797000,500.5844116210937500,7.5113611221313480,42.7504615783691400,114,4130,47,50,53,9621,2146966244,2147521051,2147299300,2147507574,2147083922,2146920484,2147715885,2147120777,29,-1,8,9094
1378811138,5808,1093.1999511718750000,147.3789062500000000,492.0783996582031000,7.7750458717346190,41.4968490600585940,115,4130,48,50,53,9617,2146962724,2147519122,2147300306,2147508443,2147084361,2146923355,2147719204,2147118692,320,-1,8,38871
1378814738,5806,1086.9499511718750000,108.6106033325195300,492.5397949218750000,7.7607560157775880,45.0202293395996100,114,4130,47,50,53,9616,2146963099,2147523337,2147298980,2147510939,2147080539,2146921737,2147718043,2147120704,375,-1,8,14180
1378818338,5807,1089.8900146484375000,141.2904052734375000,492.6188049316406000,7.7583069801330570,42.0100898742675800,115,4130,48,50,53,9615,2146963529,2147516937,2147297865,2147506084,2147085933,2146920850,2147719798,2147120923,457,0,8,22761
1378821938,5805,1075.8199462890625000,107.6346969604492200,480.0993957519531000,8.1456041336059570,44.9238014221191400,114,4130,48,50,54,9630,2146963748,2147518848,2147298651,2147503936,2147085366,2146924617,2147712073,2147122139,89,-1,8,41439
1378825538,5805,1069.8199462890625000,137.0489044189453000,479.2791137695312500,8.1709442138671880,42.1494712829589840,115,4130,48,50,53,9633,2146962066,2147517787,2147298843,2147505554,2147084050,2146920064,2147711488,2147122669,3491,-1,8,53735
1378829138,5808,1070.3299560546875000,116.2955017089843800,480.1604919433594000,8.1437149047851560,44.0645408630371100,114,4130,47,50,53,9631,2146965942,2147521152,2147296804,2147506157,2147083190,2146922605,2147713718,2147118528,84,-1,8,19665
1378832738,5801,1054.3800048828125000,132.8999023437500000,471.7489013671875000,8.4033908843994140,42.3892707824707000,115,4130,49,50,53,9628,2146959259,2147519734,2147296429,2147508379,2147084672,2146925174,2147715081,2147120530,3262,-1,8,60260
1378836338,5804,1049.5500488281250000,137.0381011962890600,472.1765136718750000,8.3901996612548830,42.0332603454589840,116,4130,47,50,52,9633,2146965394,2147518756,2147297124,2147504630,2147087113,2146927515,2147710976,2147120036,255,-1,8,53808
1378839938,5808,1050.6500244140625000,142.3908996582031200,471.9172058105469000,8.3981971740722660,41.5714302062988300,116,4130,48,50,53,9634,2146960329,2147520164,2147297289,2147502180,2147083392,2146925952,2147712685,2147124160,226,-1,8,45065
1378843538,5806,1035.0699462890625000,144.4181060791015600,462.0524902343750000,8.7022056579589840,41.2385482788085940,115,4130,48,50,53,9631,2146962587,2147519049,2147295890,2147502546,2147082212,2146927478,2147711478,2147124315,944,-1,8,16169
1378847138,5806,1042.5400390625000000,147.6286010742187500,460.2905883789062500,8.7564439773559570,40.9444694519043000,116,4130,47,50,52,9632,2146963501,2147520246,2147295515,2147505920,2147083803,2146925293,2147710418,2147124918,2041,-1,8,64121
1378850738,5805,1036.0600585937500000,132.5843048095703000,459.3447875976562500,8.7855491638183600,42.2139205932617200,117,4130,48,50,52,9632,2146961737,2147518272,2147294098,2147503378,2147082870,2146924681,2147713270,2147123574,3342,-1,8,63676
1378854338,5804,1021.0300292968750000,135.3307037353515600,449.1614074707031000,9.0986385345458980,41.8059501647949200,117,4130,48,50,53,9635,2146963382,2147516571,2147295561,2147500288,2147082276,2146927506,2147710144,2147120731,3070,-1,8,33376
1378857938,5804,1025.2700195312500000,127.5901031494140600,446.0939025878906000,9.1928405761718750,42.4515914916992200,118,4130,47,50,53,9632,2146960265,2147518994,2147293741,2147501897,2147081865,2146926665,2147709952,2147122020,94,-1,8,18071
1378861538,5802,1019.4199829101562000,131.5520019531250000,445.7597961425781000,9.2030973434448240,42.0853691101074200,117,4130,48,50,53,9627,2146963958,2147519341,2147294134,2147500809,2147085019,2146927917,2147709906,2147121078,3535,-1,8,53247
1378865138,5809,1019.2600097656250000,134.1979980468750000,445.9045104980469000,9.1986551284790040,41.8515510559082000,117,4130,48,50,52,9626,2146962038,2147520576,2147297627,2147502592,2147080740,2146926070,2147708681,2147122322,8,-1,8,24585
1378868738,5808,1021.1599731445312000,135.3294067382812500,445.6642150878906000,9.2060317993164060,41.7473602294921900,118,4130,48,51,53,9628,2146961600,2147519332,2147294070,2147500416,2147081462,2146926646,2147705472,2147119899,564,-1,8,3741
1378872338,5808,1015.0800170898438000,97.7269363403320300,448.5315856933594000,9.1179838180542000,45.4917297363281250,118,4130,48,51,52,9631,2146958875,2147518701,2147297060,2147500306,2147084608,2146925641,2147709677,2147124434,101,-1,8,28433
1378875938,5807,1017.0800170898438000,84.2686004638671900,448.8627929687500000,9.1078138351440430,47.0347404479980500,118,4130,47,50,53,9630,2146964224,2147518784,2147298386,2147500050,2147083977,2146921078,2147708443,2147122203,72,-1,8,23299
1378879538,5808,1016.9400024414062000,126.7530975341796900,449.4338073730469000,9.0902738571167000,42.5834007263183600,119,4130,48,50,54,9625,2146960905,2147521782,2147294052,2147501083,2147084516,2146923145,2147713234,2147123382,38,-1,8,39843
1378883138,5806,1017.6099853515625000,123.8365020751953100,450.6489868164062500,9.0529384613037110,42.8744697570800800,119,4130,48,50,53,9624,2146967177,2147516745,2147292324,2147502244,2147086701,2146924882,2147709622,2147121517,3208,-1,8,11242
1378886738,5809,1012.8699951171875000,117.0145034790039000,451.7383117675781000,9.0194692611694340,43.5454788208007800,118,4130,48,49,52,9622,2146959277,2147520594,2147293778,2147499529,2147082477,2146922797,2147710454,2147121746,83,-1,8,58771
1378890338,5805,1013.5999755859375000,129.4515991210937500,450.9950866699219000,9.0423040390014650,42.3616294860839840,119,4130,47,50,52,9621,2146963977,2147520621,2147293979,2147500955,2147082066,2146924608,2147709083,2147119853,3549,-1,8,7457
1378893938,5802,1022.2500000000000000,145.6130065917968800,450.6430053710937500,9.0531244277954100,40.9504203796386700,119,4130,49,50,53,9624,2146967067,2147517430,2147295680,2147499556,2147083382,2146924525,2147706688,2147124434,2769,-1,8,28911
1378897538,5804,1023.6699829101562000,130.4924926757812500,450.1731872558594000,9.0675563812255860,42.2529792785644500,119,4130,48,50,52,9618,2146963081,2147521929,2147293165,2147498093,2147085440,2146929682,2147711168,2147121910,378,-1,8,11433
1378901138,5810,1020.5100097656250000,127.5708999633789000,450.1897888183594000,9.0670480728149410,42.5205307006835940,119,4130,48,50,54,9620,2146961728,2147517577,2147296521,2147499904,2147084425,2146922953,2147704868,2147123492,14,-1,8,60097
1378904738,5803,1023.5200195312500000,140.8789062500000000,448.5100097656250000,9.1186485290527340,41.3137702941894500,119,4130,47,50,54,9619,2146961526,2147521618,2147296658,2147498697,2147081490,2146928667,2147707593,2147121810,3399,-1,8,26392
1378906256,5805,1025.6099853515625000,146.5164947509765600,447.5936889648437500,9.1467895507812500,40.8249092102050800,120,4130,47,49,53,9618,2146961280,2147522322,2147292827,2147498614,2147085046,2146928768,2147702573,2147123017,2603,-1,8,55104
